Location: Chilton Park
(37.7711°N, 100.0276°W)
Time: 03:13:05
(UTC+00:00)

Cosmos 1898 Rocket - Pass Details

Date: 07 July 2022
Orbit: 753 x 783 km, 74.0° (Epoch: 13 August)

Event Time Altitude Azimuth Distance (km) Brightness Sun altitude
Rises 06:57:02 0° 350° (N) 3,213 7.9 -29.6°
Reaches altitude 10° 06:59:37 10° 0° (N) 2,284 6.9 -29.6°
Maximum altitude 07:04:19 34° 65° (ENE) 1,221 4.7 -29.5°
Enters shadow 07:04:43 34° 75° (ENE) 1,232 4.6 -29.5°
